Location: Unspecified
(35.6961°N, 0.0000°E)
Time: 16:30:52
(UTC+00:00)

ISS - Pass Details

Date: 27 April 2019
Orbit: 407 x 410 km, 51.6° (Epoch: 20 May)

Event Time Altitude Azimuth Distance (km) Brightness Sun altitude
Exits shadow 04:10:28 10° 191° (S) 1,455 -1.4 -12.6°
Maximum altitude 04:13:17 27° 131° (SE) 820 -2.1 -12.1°
Drops below altitude 10° 04:16:09 10° 71° (ENE) 1,475 0.5 -11.5°
Sets 04:18:25 0° 59° (ENE) 2,340 2.2 -11.1°
